Location: Proctor
(47.8934°N, 114.3048°W)
Time: 00:05:42
(UTC+00:00)

SR - Visible Passes

Search period start: 16 June 2024 00:00
Search period end: 26 June 2024 00:00
Orbit: 580 x 858 km, 66.7° (Epoch: 15 June)

Date Brightness Start Highest point End Pass type
(mag) Time Alt. Az. Time Alt. Az. Time Alt. Az.
16 Jun ? 04:24:06 10° NW 04:28:09 45° WSW 04:32:12 10° S visible
17 Jun ? 05:15:28 10° W 05:17:03 12° WSW 05:18:38 10° SW visible
18 Jun ? 04:21:34 10° WNW 04:25:06 26° WSW 04:28:39 10° S visible
20 Jun ? 04:19:28 10° WNW 04:21:57 15° WSW 04:24:26 10° SW visible
